Time,TemperatureF,DewpointF,PressureIn,WindDirection,WindDirectionDegrees,WindSpeedMPH,WindSpeedGustMPH,Humidity,HourlyPrecipIn,Conditions,Clouds,dailyrainin,SolarRadiationWatts/m^2,SoftwareType,DateUTC
2013-04-01 00:04:00,48.0,43.1,29.94,SSW,208,1.0,3.0,83,0.00,,,0.00,0,Wunderground v.1.15,2013-04-01 07:04:00,
2013-04-01 00:09:00,48.2,43.6,29.94,SSW,208,1.0,3.0,84,0.00,,,0.00,0,Wunderground v.1.15,2013-04-01 07:09:00,
2013-04-01 00:14:00,48.2,43.6,29.94,SSW,208,0.0,2.0,84,0.00,,,0.00,0,Wunderground v.1.15,2013-04-01 07:14:00,
2013-04-01 00:19:00,48.2,43.6,29.95,SSW,208,1.0,2.0,84,0.00,,,0.00,0,Wunderground v.1.15,2013-04-01 07:19:00,
2013-04-01 00:24:00,48.2,43.9,29.95,SSW,208,1.0,2.0,85,0.00,,,0.00,0,Wunderground v.1.15,2013-04-01 07:24:00,
2013-04-01 00:29:00,48.2,43.9,29.95,SSW,208,0.0,2.0,85,0.00,,,0.00,0,Wunderground v.1.15,2013-04-01 07:29:00,
2013-04-01 00:34:00,48.2,44.2,29.95,SSW,208,0.0,0.0,86,0.00,,,0.00,0,Wunderground v.1.15,2013-04-01 07:34:00,
2013-04-01 00:39:00,48.2,44.2,29.95,SSW,208,0.0,1.0,86,0.00,,,0.00,0,Wunderground v.1.15,2013-04-01 07:39:00,
2013-04-01 00:44:00,48.3,44.6,29.95,SSW,208,0.0,1.0,87,0.00,,,0.00,0,Wunderground v.1.15,2013-04-01 07:44:00,
2013-04-01 00:49:00,48.3,44.6,29.96,SSW,208,0.0,1.0,87,0.00,,,0.00,0,Wunderground v.1.15,2013-04-01 07:49:00,
2013-04-01 00:54:00,48.3,44.6,29.96,SSW,208,0.0,0.0,87,0.00,,,0.00,0,Wunderground v.1.15,2013-04-01 07:54:00,
2013-04-01 00:59:00,48.2,44.5,29.96,SSW,208,0.0,0.0,87,0.00,,,0.00,0,Wunderground v.1.15,2013-04-01 07:59:00,
2013-04-01 01:04:00,48.2,44.5,29.96,SSW,208,0.0,0.0,87,0.00,,,0.00,0,Wunderground v.1.15,2013-04-01 08:04:00,
2013-04-01 01:10:00,48.2,44.5,29.96,SSW,208,0.0,0.0,87,0.00,,,0.00,0,Wunderground v.1.15,2013-04-01 08:10:00,
2013-04-01 01:15:00,48.0,44.3,29.97,SSW,208,0.0,0.0,87,0.00,,,0.00,0,Wunderground v.1.15,2013-04-01 08:15:00,
2013-04-01 01:20:00,48.0,44.6,29.97,SSW,208,0.0,0.0,88,0.00,,,0.00,0,Wunderground v.1.15,2013-04-01 08:20:00,
2013-04-01 01:25:00,47.9,44.5,29.97,SSW,208,0.0,0.0,88,0.00,,,0.00,0,Wunderground v.1.15,2013-04-01 08:25:00,
2013-04-01 01:30:00,47.9,44.8,29.97,SSW,208,1.0,1.0,89,0.00,,,0.00,0,Wunderground v.1.15,2013-04-01 08:30:00,
2013-04-01 01:35:00,47.9,44.8,29.97,SSW,208,0.0,1.0,89,0.00,,,0.00,0,Wunderground v.1.15,2013-04-01 08:35:00,
2013-04-01 01:40:00,47.7,44.6,29.97,SSW,208,0.0,0.0,89,0.00,,,0.00,0,Wunderground v.1.15,2013-04-01 08:40:00,
2013-04-01 01:45:00,47.7,44.6,29.98,SSW,208,0.0,0.0,89,0.00,,,0.00,0,Wunderground v.1.15,2013-04-01 08:45:00,
2013-04-01 01:51:00,47.6,44.8,29.98,South,178,0.0,0.0,90,0.00,,,0.00,0,Wunderground v.1.15,2013-04-01 08:51:00,
2013-04-01 01:57:00,47.4,44.6,29.98,SSW,213,0.0,0.0,90,0.00,,,0.00,0,Wunderground v.1.15,2013-04-01 08:57:00,
2013-04-01 02:02:00,47.4,44.6,29.98,SSW,213,0.0,0.0,90,0.00,,,0.00,0,Wunderground v.1.15,2013-04-01 09:02:00,
2013-04-01 02:07:00,47.3,44.5,29.98,SW,221,1.0,2.0,90,0.00,,,0.00,0,Wunderground v.1.15,2013-04-01 09:07:00,
2013-04-01 02:12:00,47.3,44.5,29.98,North,5,1.0,3.0,90,0.00,,,0.00,0,Wunderground v.1.15,2013-04-01 09:12:00,
2013-04-01 02:17:00,47.3,44.8,29.98,North,5,0.0,3.0,91,0.00,,,0.00,0,Wunderground v.1.15,2013-04-01 09:17:00,
2013-04-01 02:22:00,47.1,44.6,29.98,North,5,0.0,0.0,91,0.00,,,0.00,0,Wunderground v.1.15,2013-04-01 09:22:00,
2013-04-01 02:28:00,47.1,44.6,29.98,SSW,207,0.0,2.0,91,0.00,,,0.00,0,Wunderground v.1.15,2013-04-01 09:28:00,
2013-04-01 02:33:00,47.0,44.5,29.98,SSW,202,0.0,0.0,91,0.00,,,0.00,0,Wunderground v.1.15,2013-04-01 09:33:00,
2013-04-01 02:38:00,47.0,44.8,29.98,SSW,202,0.0,1.0,92,0.00,,,0.00,0,Wunderground v.1.15,2013-04-01 09:38:00,
2013-04-01 02:43:00,47.0,44.8,29.98,SSW,202,0.0,1.0,92,0.00,,,0.00,0,Wunderground v.1.15,2013-04-01 09:43:00,
2013-04-01 02:48:00,46.8,44.6,29.98,SSW,201,0.0,1.0,92,0.00,,,0.00,0,Wunderground v.1.15,2013-04-01 09:48:00,
2013-04-01 02:53:00,46.8,44.6,29.98,SSW,201,0.0,0.0,92,0.00,,,0.00,0,Wunderground v.1.15,2013-04-01 09:53:00,
2013-04-01 02:58:00,46.7,44.5,29.98,SSW,201,0.0,0.0,92,0.00,,,0.00,0,Wunderground v.1.15,2013-04-01 09:58:00,
2013-04-01 03:03:00,46.7,44.8,29.99,SE,130,0.0,2.0,93,0.00,,,0.00,0,Wunderground v.1.15,2013-04-01 10:03:00,
2013-04-01 03:08:00,46.7,44.8,29.99,SE,130,0.0,2.0,93,0.00,,,0.00,0,Wunderground v.1.15,2013-04-01 10:08:00,
2013-04-01 03:13:00,46.7,44.8,29.99,SE,130,0.0,0.0,93,0.00,,,0.00,0,Wunderground v.1.15,2013-04-01 10:13:00,
2013-04-01 03:18:00,46.5,44.6,29.99,SE,130,0.0,0.0,93,0.00,,,0.00,0,Wunderground v.1.15,2013-04-01 10:18:00,
2013-04-01 03:23:00,46.5,44.6,29.99,SE,130,0.0,0.0,93,0.00,,,0.00,0,Wunderground v.1.15,2013-04-01 10:23:00,
2013-04-01 03:28:00,46.5,44.6,29.99,SE,130,0.0,1.0,93,0.00,,,0.00,0,Wunderground v.1.15,2013-04-01 10:28:00,
2013-04-01 03:33:00,46.5,44.6,29.99,SE,130,0.0,0.0,93,0.00,,,0.00,0,Wunderground v.1.15,2013-04-01 10:33:00,
2013-04-01 03:38:00,46.5,44.9,29.99,SE,130,0.0,1.0,94,0.00,,,0.00,0,Wunderground v.1.15,2013-04-01 10:38:00,
2013-04-01 03:43:00,46.7,45.1,29.99,SE,130,0.0,0.0,94,0.00,,,0.00,0,Wunderground v.1.15,2013-04-01 10:43:00,
2013-04-01 03:48:00,46.7,45.1,29.99,SE,130,0.0,0.0,94,0.00,,,0.00,0,Wunderground v.1.15,2013-04-01 10:48:00,
2013-04-01 03:53:00,46.8,45.2,29.99,ESE,123,0.0,2.0,94,0.00,,,0.00,0,Wunderground v.1.15,2013-04-01 10:53:00,
2013-04-01 03:58:00,46.8,45.4,29.99,SE,132,0.0,2.0,95,0.00,,,0.00,0,Wunderground v.1.15,2013-04-01 10:58:00,
2013-04-01 04:03:00,47.0,45.6,29.99,SSE,165,0.0,0.0,95,0.00,,,0.00,0,Wunderground v.1.15,2013-04-01 11:03:00,
2013-04-01 04:08:00,47.0,45.6,29.99,South,175,0.0,2.0,95,0.00,,,0.00,0,Wunderground v.1.15,2013-04-01 11:08:00,
2013-04-01 04:13:00,47.0,45.6,29.99,South,175,0.0,0.0,95,0.00,,,0.00,0,Wunderground v.1.15,2013-04-01 11:13:00,
2013-04-01 04:18:00,47.1,45.7,29.99,South,175,1.0,1.0,95,0.00,,,0.00,0,Wunderground v.1.15,2013-04-01 11:18:00,
2013-04-01 04:23:00,47.1,45.7,29.99,South,175,0.0,1.0,95,0.00,,,0.00,0,Wunderground v.1.15,2013-04-01 11:23:00,
2013-04-01 04:28:00,47.3,45.9,29.99,South,175,0.0,1.0,95,0.00,,,0.00,0,Wunderground v.1.15,2013-04-01 11:28:00,
2013-04-01 04:33:00,47.3,45.9,29.99,South,175,0.0,1.0,95,0.00,,,0.00,0,Wunderground v.1.15,2013-04-01 11:33:00,
2013-04-01 04:38:00,47.4,46.0,29.99,South,175,0.0,1.0,95,0.00,,,0.00,0,Wunderground v.1.15,2013-04-01 11:38:00,
2013-04-01 04:43:00,47.4,46.0,29.99,South,175,0.0,1.0,95,0.00,,,0.00,0,Wunderground v.1.15,2013-04-01 11:43:00,
2013-04-01 04:48:00,47.6,46.5,29.99,South,175,0.0,1.0,96,0.00,,,0.00,0,Wunderground v.1.15,2013-04-01 11:48:00,
2013-04-01 04:53:00,47.6,46.5,29.99,South,175,0.0,1.0,96,0.00,,,0.00,0,Wunderground v.1.15,2013-04-01 11:53:00,
2013-04-01 04:58:00,47.7,46.6,29.99,SSE,147,0.0,2.0,96,0.00,,,0.00,0,Wunderground v.1.15,2013-04-01 11:58:00,
2013-04-01 05:04:00,47.7,46.6,29.99,SSW,198,0.0,3.0,96,0.00,,,0.00,0,Wunderground v.1.15,2013-04-01 12:04:00,
2013-04-01 05:09:00,47.7,46.6,29.99,SSW,196,0.0,3.0,96,0.00,,,0.00,0,Wunderground v.1.15,2013-04-01 12:09:00,
2013-04-01 05:14:00,47.9,46.8,29.99,East,84,0.0,3.0,96,0.00,,,0.00,0,Wunderground v.1.15,2013-04-01 12:14:00,
2013-04-01 05:19:00,48.0,46.9,29.99,East,84,0.0,3.0,96,0.00,,,0.00,0,Wunderground v.1.15,2013-04-01 12:19:00,
2013-04-01 05:24:00,48.0,46.9,29.99,East,84,0.0,1.0,96,0.00,,,0.00,0,Wunderground v.1.15,2013-04-01 12:24:00,
2013-04-01 05:29:00,48.0,46.9,29.99,East,84,0.0,1.0,96,0.00,,,0.00,0,Wunderground v.1.15,2013-04-01 12:29:00,
2013-04-01 05:34:00,48.2,47.1,29.99,East,84,0.0,0.0,96,0.00,,,0.00,0,Wunderground v.1.15,2013-04-01 12:34:00,
2013-04-01 05:39:00,48.2,47.1,29.99,SSE,149,0.0,2.0,96,0.00,,,0.00,0,Wunderground v.1.15,2013-04-01 12:39:00,
2013-04-01 05:44:00,48.2,47.1,29.99,SSE,149,0.0,0.0,96,0.00,,,0.00,0,Wunderground v.1.15,2013-04-01 12:44:00,
2013-04-01 05:49:00,48.2,47.1,30.00,SSE,149,0.0,1.0,96,0.00,,,0.00,0,Wunderground v.1.15,2013-04-01 12:49:00,
2013-04-01 05:54:00,48.2,47.1,30.00,SSE,149,0.0,0.0,96,0.00,,,0.00,0,Wunderground v.1.15,2013-04-01 12:54:00,
2013-04-01 05:59:00,48.3,47.2,30.00,SSE,149,0.0,1.0,96,0.00,,,0.00,0,Wunderground v.1.15,2013-04-01 12:59:00,
2013-04-01 06:04:00,48.3,47.2,30.00,South,185,0.0,2.0,96,0.00,,,0.00,0,Wunderground v.1.15,2013-04-01 13:04:00,
2013-04-01 06:09:00,48.3,47.2,30.00,South,185,0.0,2.0,96,0.00,,,0.00,0,Wunderground v.1.15,2013-04-01 13:09:00,
2013-04-01 06:14:00,48.3,47.2,30.00,South,185,0.0,0.0,96,0.00,,,0.00,0,Wunderground v.1.15,2013-04-01 13:14:00,
2013-04-01 06:19:00,48.5,47.4,30.00,South,185,0.0,1.0,96,0.00,,,0.00,0,Wunderground v.1.15,2013-04-01 13:19:00,
2013-04-01 06:24:00,48.5,47.4,30.00,South,184,0.0,1.0,96,0.00,,,0.00,0,Wunderground v.1.15,2013-04-01 13:24:00,
2013-04-01 06:29:00,48.5,47.4,30.00,South,185,0.0,1.0,96,0.00,,,0.00,0,Wunderground v.1.15,2013-04-01 13:29:00,
2013-04-01 06:34:00,48.5,47.4,30.01,South,185,0.0,0.0,96,0.00,,,0.00,0,Wunderground v.1.15,2013-04-01 13:34:00,
2013-04-01 06:39:00,48.5,47.4,30.01,South,185,0.0,0.0,96,0.00,,,0.00,0,Wunderground v.1.15,2013-04-01 13:39:00,
2013-04-01 06:44:00,48.6,47.5,30.01,South,185,0.0,0.0,96,0.00,,,0.00,0,Wunderground v.1.15,2013-04-01 13:44:00,
2013-04-01 06:49:00,48.6,47.5,30.01,South,185,0.0,0.0,96,0.00,,,0.00,0,Wunderground v.1.15,2013-04-01 13:49:00,
2013-04-01 06:54:00,48.6,47.5,30.01,South,185,0.0,1.0,96,0.00,,,0.00,0,Wunderground v.1.15,2013-04-01 13:54:00,
2013-04-01 06:59:00,48.6,47.5,30.01,South,185,0.0,1.0,96,0.00,,,0.00,0,Wunderground v.1.15,2013-04-01 13:59:00,
2013-04-01 07:04:00,48.6,47.5,30.01,South,185,0.0,1.0,96,0.00,,,0.00,5,Wunderground v.1.15,2013-04-01 14:04:00,
2013-04-01 07:09:00,48.6,47.5,30.01,South,185,0.0,1.0,96,0.00,,,0.00,7,Wunderground v.1.15,2013-04-01 14:09:00,
2013-04-01 07:14:00,48.6,47.5,30.01,South,185,0.0,1.0,96,0.00,,,0.00,9,Wunderground v.1.15,2013-04-01 14:14:00,
2013-04-01 07:19:00,48.6,47.5,30.02,South,183,0.0,1.0,96,0.00,,,0.00,11,Wunderground v.1.15,2013-04-01 14:19:00,
2013-04-01 07:24:00,48.6,47.5,30.02,South,183,0.0,1.0,96,0.00,,,0.00,14,Wunderground v.1.15,2013-04-01 14:24:00,
2013-04-01 07:29:00,48.8,47.7,30.02,South,184,0.0,4.0,96,0.00,,,0.00,18,Wunderground v.1.15,2013-04-01 14:29:00,
2013-04-01 07:34:00,48.8,47.7,30.02,SSE,158,0.0,1.0,96,0.00,,,0.00,25,Wunderground v.1.15,2013-04-01 14:34:00,
2013-04-01 07:39:00,48.8,47.7,30.02,South,186,0.0,6.0,96,0.00,,,0.00,26,Wunderground v.1.15,2013-04-01 14:39:00,
2013-04-01 07:44:00,48.9,47.8,30.02,South,186,1.0,2.0,96,0.00,,,0.00,25,Wunderground v.1.15,2013-04-01 14:44:00,
2013-04-01 07:49:00,48.9,47.8,30.02,South,179,0.0,2.0,96,0.00,,,0.00,25,Wunderground v.1.15,2013-04-01 14:49:00,
2013-04-01 07:54:00,48.9,47.8,30.02,ESE,107,0.0,1.0,96,0.00,,,0.00,23,Wunderground v.1.15,2013-04-01 14:54:00,
2013-04-01 07:59:00,49.1,48.0,30.02,ESE,107,1.0,2.0,96,0.00,,,0.00,23,Wunderground v.1.15,2013-04-01 14:59:00,
2013-04-01 08:04:00,49.1,48.0,30.03,ESE,107,0.0,2.0,96,0.00,,,0.00,21,Wunderground v.1.15,2013-04-01 15:04:00,
2013-04-01 08:09:00,49.1,48.0,30.03,ESE,103,0.0,2.0,96,0.00,,,0.00,23,Wunderground v.1.15,2013-04-01 15:09:00,
2013-04-01 08:14:00,49.2,48.1,30.03,ESE,103,0.0,2.0,96,0.00,,,0.00,28,Wunderground v.1.15,2013-04-01 15:14:00,
2013-04-01 08:19:00,49.2,47.8,30.03,East,101,0.0,4.0,95,0.00,,,0.00,26,Wunderground v.1.15,2013-04-01 15:19:00,
2013-04-01 08:24:00,49.2,48.1,30.03,East,101,0.0,1.0,96,0.00,,,0.00,28,Wunderground v.1.15,2013-04-01 15:24:00,
2013-04-01 08:29:00,49.4,48.3,30.03,South,170,0.0,2.0,96,0.00,,,0.00,33,Wunderground v.1.15,2013-04-01 15:29:00,
2013-04-01 08:34:00,49.4,48.0,30.04,South,170,0.0,0.0,95,0.00,,,0.00,35,Wunderground v.1.15,2013-04-01 15:34:00,
2013-04-01 08:39:00,49.5,48.1,30.04,South,170,0.0,2.0,95,0.00,,,0.00,37,Wunderground v.1.15,2013-04-01 15:39:00,
2013-04-01 08:45:00,49.5,48.1,30.04,South,170,0.0,1.0,95,0.00,,,0.00,39,Wunderground v.1.15,2013-04-01 15:45:00,
2013-04-01 08:50:00,49.6,48.2,30.04,South,170,0.0,1.0,95,0.00,,,0.00,37,Wunderground v.1.15,2013-04-01 15:50:00,
2013-04-01 08:55:00,49.6,48.2,30.04,South,170,0.0,0.0,95,0.00,,,0.00,47,Wunderground v.1.15,2013-04-01 15:55:00,
2013-04-01 09:00:00,49.8,48.4,30.04,South,170,0.0,2.0,95,0.00,,,0.00,51,Wunderground v.1.15,2013-04-01 16:00:00,
2013-04-01 09:05:00,49.8,48.4,30.04,South,170,1.0,1.0,95,0.00,,,0.00,54,Wunderground v.1.15,2013-04-01 16:05:00,
2013-04-01 09:10:00,49.9,48.5,30.04,South,173,0.0,7.0,95,0.00,,,0.00,49,Wunderground v.1.15,2013-04-01 16:10:00,
2013-04-01 09:15:00,49.9,48.5,30.04,South,173,1.0,2.0,95,0.00,,,0.00,51,Wunderground v.1.15,2013-04-01 16:15:00,
2013-04-01 09:20:00,50.1,48.7,30.05,SSE,148,1.0,4.0,95,0.00,,,0.00,49,Wunderground v.1.15,2013-04-01 16:20:00,
2013-04-01 09:25:00,50.1,48.7,30.05,SSE,148,0.0,1.0,95,0.00,,,0.00,47,Wunderground v.1.15,2013-04-01 16:25:00,
2013-04-01 09:30:00,50.1,48.7,30.05,SE,140,0.0,4.0,95,0.00,,,0.00,46,Wunderground v.1.15,2013-04-01 16:30:00,
2013-04-01 09:35:00,50.2,48.8,30.05,SSW,209,0.0,2.0,95,0.00,,,0.00,53,Wunderground v.1.15,2013-04-01 16:35:00,
2013-04-01 09:40:00,50.2,48.5,30.05,SSW,209,0.0,2.0,94,0.00,,,0.00,49,Wunderground v.1.15,2013-04-01 16:40:00,
2013-04-01 09:45:00,50.4,48.7,30.05,SSW,209,0.0,1.0,94,0.00,,,0.00,49,Wunderground v.1.15,2013-04-01 16:45:00,
2013-04-01 09:50:00,50.4,48.7,30.05,SSW,209,0.0,1.0,94,0.00,,,0.00,53,Wunderground v.1.15,2013-04-01 16:50:00,
2013-04-01 09:55:00,50.4,48.7,30.05,North,350,0.0,2.0,94,0.00,,,0.00,53,Wunderground v.1.15,2013-04-01 16:55:00,
2013-04-01 10:00:00,50.5,48.8,30.05,North,350,0.0,2.0,94,0.00,,,0.00,53,Wunderground v.1.15,2013-04-01 17:00:00,
2013-04-01 10:05:00,50.5,48.8,30.06,North,350,0.0,2.0,94,0.00,,,0.00,53,Wunderground v.1.15,2013-04-01 17:05:00,
2013-04-01 10:10:00,50.7,49.0,30.06,North,350,0.0,2.0,94,0.00,,,0.00,70,Wunderground v.1.15,2013-04-01 17:10:00,
2013-04-01 10:15:00,50.8,49.1,30.06,North,355,0.0,3.0,94,0.00,,,0.00,70,Wunderground v.1.15,2013-04-01 17:15:00,
2013-04-01 10:20:00,50.8,48.8,30.06,SSE,157,0.0,4.0,93,0.00,,,0.00,72,Wunderground v.1.15,2013-04-01 17:20:00,
2013-04-01 10:25:00,50.8,48.8,30.06,NE,40,1.0,2.0,93,0.00,,,0.00,67,Wunderground v.1.15,2013-04-01 17:25:00,
2013-04-01 10:30:00,51.0,49.0,30.06,NE,56,0.0,3.0,93,0.00,,,0.00,65,Wunderground v.1.15,2013-04-01 17:30:00,
2013-04-01 10:35:00,51.0,49.0,30.07,NE,56,0.0,1.0,93,0.00,,,0.00,65,Wunderground v.1.15,2013-04-01 17:35:00,
2013-04-01 10:40:00,51.1,49.1,30.07,NE,53,1.0,3.0,93,0.00,,,0.00,69,Wunderground v.1.15,2013-04-01 17:40:00,
2013-04-01 10:45:00,51.1,49.1,30.07,NE,53,0.0,2.0,93,0.00,,,0.00,69,Wunderground v.1.15,2013-04-01 17:45:00,
2013-04-01 10:50:00,51.3,49.3,30.07,ENE,64,1.0,3.0,93,0.00,,,0.00,81,Wunderground v.1.15,2013-04-01 17:50:00,
2013-04-01 10:55:00,51.3,49.3,30.07,SSE,167,0.0,3.0,93,0.00,,,0.00,69,Wunderground v.1.15,2013-04-01 17:55:00,
2013-04-01 11:00:00,51.4,49.2,30.07,SSE,155,0.0,3.0,92,0.00,,,0.00,81,Wunderground v.1.15,2013-04-01 18:00:00,
2013-04-01 11:05:00,51.6,49.4,30.07,NE,55,2.0,3.0,92,0.00,,,0.00,97,Wunderground v.1.15,2013-04-01 18:05:00,
2013-04-01 11:10:00,51.6,49.4,30.07,ENE,69,1.0,4.0,92,0.00,,,0.00,104,Wunderground v.1.15,2013-04-01 18:10:00,
2013-04-01 11:15:00,51.6,49.4,30.07,ENE,71,0.0,3.0,92,0.00,,,0.00,104,Wunderground v.1.15,2013-04-01 18:15:00,
2013-04-01 11:20:00,51.7,49.5,30.07,ENE,71,1.0,3.0,92,0.00,,,0.00,111,Wunderground v.1.15,2013-04-01 18:20:00,
2013-04-01 11:25:00,51.7,49.5,30.07,ENE,71,0.0,3.0,92,0.00,,,0.00,104,Wunderground v.1.15,2013-04-01 18:25:00,
2013-04-01 11:30:00,51.9,49.6,30.07,ENE,71,1.0,1.0,92,0.00,,,0.00,123,Wunderground v.1.15,2013-04-01 18:30:00,
2013-04-01 11:35:00,51.9,49.4,30.07,East,79,0.0,3.0,91,0.00,,,0.00,102,Wunderground v.1.15,2013-04-01 18:35:00,
2013-04-01 11:40:00,51.9,49.4,30.07,ENE,71,2.0,3.0,91,0.00,,,0.00,104,Wunderground v.1.15,2013-04-01 18:40:00,
2013-04-01 11:45:00,52.0,49.5,30.07,ENE,65,0.0,3.0,91,0.00,,,0.00,158,Wunderground v.1.15,2013-04-01 18:45:00,
2013-04-01 11:50:00,52.2,49.7,30.07,ENE,69,1.0,1.0,91,0.00,,,0.00,114,Wunderground v.1.15,2013-04-01 18:50:00,
2013-04-01 11:55:00,52.2,49.7,30.07,East,81,1.0,2.0,91,0.00,,,0.00,128,Wunderground v.1.15,2013-04-01 18:55:00,
2013-04-01 12:00:00,52.3,49.8,30.07,East,81,0.0,1.0,91,0.00,,,0.00,113,Wunderground v.1.15,2013-04-01 19:00:00,
2013-04-01 12:05:00,52.3,49.5,30.07,East,81,0.0,2.0,90,0.00,,,0.00,123,Wunderground v.1.15,2013-04-01 19:05:00,
2013-04-01 12:10:00,52.5,49.7,30.07,ENE,62,0.0,1.0,90,0.00,,,0.00,128,Wunderground v.1.15,2013-04-01 19:10:00,
2013-04-01 12:15:00,52.6,49.8,30.07,East,92,0.0,4.0,90,0.00,,,0.00,160,Wunderground v.1.15,2013-04-01 19:15:00,
2013-04-01 12:20:00,52.8,49.9,30.07,ENE,64,2.0,2.0,90,0.00,,,0.00,146,Wunderground v.1.15,2013-04-01 19:20:00,
2013-04-01 12:25:00,52.8,49.9,30.07,ENE,74,2.0,4.0,90,0.00,,,0.00,186,Wunderground v.1.15,2013-04-01 19:25:00,
2013-04-01 12:30:00,52.9,50.0,30.07,ENE,74,3.0,3.0,90,0.00,,,0.00,200,Wunderground v.1.15,2013-04-01 19:30:00,
2013-04-01 12:35:00,53.2,50.0,30.07,ENE,63,1.0,4.0,89,0.00,,,0.00,162,Wunderground v.1.15,2013-04-01 19:35:00,
2013-04-01 12:40:00,53.3,50.1,30.07,East,92,1.0,2.0,89,0.00,,,0.00,142,Wunderground v.1.15,2013-04-01 19:40:00,
2013-04-01 12:45:00,53.3,49.8,30.07,East,80,0.0,3.0,88,0.00,,,0.00,149,Wunderground v.1.15,2013-04-01 19:45:00,
2013-04-01 12:50:00,53.5,50.0,30.07,East,80,1.0,3.0,88,0.00,,,0.00,172,Wunderground v.1.15,2013-04-01 19:50:00,
2013-04-01 12:55:00,53.8,50.6,30.07,East,80,1.0,3.0,89,0.00,,,0.00,176,Wunderground v.1.15,2013-04-01 19:55:00,
2013-04-01 13:00:00,53.9,50.4,30.07,East,80,2.0,2.0,88,0.00,,,0.00,190,Wunderground v.1.15,2013-04-01 20:00:00,
2013-04-01 13:05:00,54.1,50.3,30.07,East,80,1.0,3.0,87,0.00,,,0.00,207,Wunderground v.1.15,2013-04-01 20:05:00,
2013-04-01 13:10:00,54.4,50.6,30.07,ENE,71,1.0,2.0,87,0.00,,,0.00,185,Wunderground v.1.15,2013-04-01 20:10:00,
2013-04-01 13:15:00,54.5,50.7,30.07,ENE,74,1.0,2.0,87,0.00,,,0.00,202,Wunderground v.1.15,2013-04-01 20:15:00,
2013-04-01 13:20:00,54.8,50.7,30.07,East,86,1.0,1.0,86,0.00,,,0.00,204,Wunderground v.1.15,2013-04-01 20:20:00,
2013-04-01 13:25:00,55.0,50.9,30.07,East,86,0.0,2.0,86,0.00,,,0.00,204,Wunderground v.1.15,2013-04-01 20:25:00,
2013-04-01 13:30:00,55.3,51.2,30.07,East,86,0.0,1.0,86,0.00,,,0.00,241,Wunderground v.1.15,2013-04-01 20:30:00,
2013-04-01 13:35:00,55.6,50.8,30.07,East,95,2.0,4.0,84,0.00,,,0.00,269,Wunderground v.1.15,2013-04-01 20:35:00,
2013-04-01 13:40:00,55.9,51.1,30.07,ESE,102,1.0,2.0,84,0.00,,,0.00,309,Wunderground v.1.15,2013-04-01 20:40:00,
2013-04-01 13:45:00,56.5,51.7,30.07,SSE,153,0.0,2.0,84,0.00,,,0.00,306,Wunderground v.1.15,2013-04-01 20:45:00,
2013-04-01 13:50:00,56.7,51.3,30.07,SSE,159,0.0,1.0,82,0.00,,,0.00,274,Wunderground v.1.15,2013-04-01 20:50:00,
2013-04-01 13:55:00,57.0,50.9,30.07,SSW,193,4.0,5.0,80,0.00,,,0.00,290,Wunderground v.1.15,2013-04-01 20:55:00,
2013-04-01 14:00:00,57.5,51.0,30.07,South,180,1.0,1.0,79,0.00,,,0.00,320,Wunderground v.1.15,2013-04-01 21:00:00,
2013-04-01 14:05:00,57.8,51.7,30.07,East,84,0.0,4.0,80,0.00,,,0.00,334,Wunderground v.1.15,2013-04-01 21:05:00,
2013-04-01 14:10:00,58.1,50.9,30.07,SE,140,1.0,1.0,77,0.00,,,0.00,316,Wunderground v.1.15,2013-04-01 21:10:00,
2013-04-01 14:15:00,58.4,51.6,30.07,NE,39,3.0,3.0,78,0.00,,,0.00,288,Wunderground v.1.15,2013-04-01 21:15:00,
2013-04-01 14:20:00,58.7,51.9,30.07,NE,46,1.0,3.0,78,0.00,,,0.00,274,Wunderground v.1.15,2013-04-01 21:20:00,
2013-04-01 14:25:00,58.9,52.1,30.07,NE,50,1.0,4.0,78,0.00,,,0.00,262,Wunderground v.1.15,2013-04-01 21:25:00,
2013-04-01 14:30:00,59.0,51.8,30.07,ESE,113,1.0,2.0,77,0.00,,,0.00,265,Wunderground v.1.15,2013-04-01 21:30:00,
2013-04-01 14:35:00,59.0,51.4,30.07,East,85,1.0,7.0,76,0.00,,,0.00,278,Wunderground v.1.15,2013-04-01 21:35:00,
2013-04-01 14:40:00,59.2,51.3,30.07,ENE,59,4.0,4.0,75,0.00,,,0.00,315,Wunderground v.1.15,2013-04-01 21:40:00,
2013-04-01 14:45:00,59.3,51.7,30.07,ENE,67,1.0,4.0,76,0.00,,,0.00,306,Wunderground v.1.15,2013-04-01 21:45:00,
2013-04-01 14:50:00,59.3,51.0,30.07,SSE,165,0.0,1.0,74,0.00,,,0.00,290,Wunderground v.1.15,2013-04-01 21:50:00,
2013-04-01 14:55:00,59.5,51.6,30.07,South,187,2.0,4.0,75,0.00,,,0.00,271,Wunderground v.1.15,2013-04-01 21:55:00,
2013-04-01 15:00:00,59.6,51.3,30.07,SW,221,2.0,5.0,74,0.00,,,0.00,262,Wunderground v.1.15,2013-04-01 22:00:00,
2013-04-01 15:05:00,59.8,51.5,30.07,SW,221,0.0,5.0,74,0.00,,,0.00,294,Wunderground v.1.15,2013-04-01 22:05:00,
2013-04-01 15:10:00,59.9,51.6,30.07,NNW,334,1.0,1.0,74,0.00,,,0.00,373,Wunderground v.1.15,2013-04-01 22:10:00,
2013-04-01 15:15:00,60.1,51.8,30.07,North,5,1.0,7.0,74,0.00,,,0.00,353,Wunderground v.1.15,2013-04-01 22:15:00,
2013-04-01 15:20:00,60.2,51.9,30.07,ESE,117,1.0,2.0,74,0.00,,,0.00,262,Wunderground v.1.15,2013-04-01 22:20:00,
2013-04-01 15:25:00,60.1,51.0,30.07,SSE,160,2.0,6.0,72,0.00,,,0.00,185,Wunderground v.1.15,2013-04-01 22:25:00,
2013-04-01 15:30:00,59.9,51.2,30.07,East,80,3.0,3.0,73,0.00,,,0.00,172,Wunderground v.1.15,2013-04-01 22:30:00,
2013-04-01 15:35:00,59.8,51.1,30.07,North,5,1.0,3.0,73,0.00,,,0.00,139,Wunderground v.1.15,2013-04-01 22:35:00,
2013-04-01 15:40:00,59.6,50.9,30.07,NE,39,0.0,1.0,73,0.00,,,0.00,178,Wunderground v.1.15,2013-04-01 22:40:00,
2013-04-01 15:45:00,59.5,50.8,30.07,South,190,0.0,3.0,73,0.00,,,0.00,171,Wunderground v.1.15,2013-04-01 22:45:00,
2013-04-01 15:50:00,59.3,50.6,30.07,SE,144,1.0,2.0,73,0.00,,,0.00,105,Wunderground v.1.15,2013-04-01 22:50:00,
2013-04-01 15:55:00,59.2,50.9,30.07,East,90,0.0,3.0,74,0.00,,,0.00,137,Wunderground v.1.15,2013-04-01 22:55:00,
2013-04-01 16:00:00,59.2,51.3,30.07,SSE,157,0.0,1.0,75,0.00,,,0.00,113,Wunderground v.1.15,2013-04-01 23:00:00,
2013-04-01 16:05:00,59.0,50.7,30.07,East,87,1.0,4.0,74,0.00,,,0.00,265,Wunderground v.1.15,2013-04-01 23:05:00,
2013-04-01 16:10:00,59.0,51.1,30.07,East,86,0.0,1.0,75,0.00,,,0.00,137,Wunderground v.1.15,2013-04-01 23:10:00,
2013-04-01 16:15:00,59.0,51.1,30.06,SSW,207,2.0,5.0,75,0.00,,,0.00,81,Wunderground v.1.15,2013-04-01 23:15:00,
2013-04-01 16:20:00,59.0,51.1,30.06,NE,55,0.0,1.0,75,0.00,,,0.00,118,Wunderground v.1.15,2013-04-01 23:20:00,
2013-04-01 16:25:00,58.9,51.0,30.06,NE,55,2.0,3.0,75,0.00,,,0.00,176,Wunderground v.1.15,2013-04-01 23:25:00,
2013-04-01 16:30:00,58.9,51.3,30.06,NE,55,0.0,1.0,76,0.00,,,0.00,178,Wunderground v.1.15,2013-04-01 23:30:00,
2013-04-01 16:35:00,59.0,51.4,30.06,NE,51,4.0,4.0,76,0.00,,,0.00,302,Wunderground v.1.15,2013-04-01 23:35:00,
2013-04-01 16:40:00,58.7,50.8,30.06,ENE,63,0.0,1.0,75,0.00,,,0.00,91,Wunderground v.1.15,2013-04-01 23:40:00,
2013-04-01 16:45:00,58.4,50.5,30.06,East,79,1.0,3.0,75,0.00,,,0.00,58,Wunderground v.1.15,2013-04-01 23:45:00,
2013-04-01 16:50:00,58.1,50.6,30.06,ENE,57,1.0,1.0,76,0.00,,,0.00,69,Wunderground v.1.15,2013-04-01 23:50:00,
2013-04-01 16:55:00,57.8,50.3,30.06,ENE,70,1.0,3.0,76,0.00,,,0.00,67,Wunderground v.1.15,2013-04-01 23:55:00,
2013-04-01 17:00:00,57.5,50.0,30.06,ENE,76,0.0,1.0,76,0.00,,,0.00,42,Wunderground v.1.15,2013-04-02 00:00:00,
2013-04-01 17:05:00,57.0,49.5,30.06,ESE,114,0.0,4.0,76,0.00,,,0.00,32,Wunderground v.1.15,2013-04-02 00:05:00,
2013-04-01 17:10:00,56.6,49.5,30.06,SE,130,1.0,1.0,77,0.00,,,0.00,30,Wunderground v.1.15,2013-04-02 00:10:00,
2013-04-01 17:15:00,56.0,49.2,30.05,ESE,105,1.0,5.0,78,0.00,,,0.00,28,Wunderground v.1.15,2013-04-02 00:15:00,
2013-04-01 17:20:00,55.7,49.3,30.05,ESE,112,4.0,5.0,79,0.00,,,0.00,28,Wunderground v.1.15,2013-04-02 00:20:00,
2013-04-01 17:25:00,55.6,49.2,30.05,ESE,102,0.0,5.0,79,0.00,,,0.00,26,Wunderground v.1.15,2013-04-02 00:25:00,
2013-04-01 17:30:00,55.6,49.2,30.05,ESE,103,1.0,4.0,79,0.00,,,0.00,26,Wunderground v.1.15,2013-04-02 00:30:00,
2013-04-01 17:35:00,55.6,49.2,30.05,ESE,103,4.0,6.0,79,0.00,,,0.00,26,Wunderground v.1.15,2013-04-02 00:35:00,
2013-04-01 17:40:00,55.6,49.2,30.05,ESE,114,4.0,5.0,79,0.00,,,0.00,26,Wunderground v.1.15,2013-04-02 00:40:00,
2013-04-01 17:45:00,55.7,48.9,30.05,ESE,118,2.0,5.0,78,0.00,,,0.00,25,Wunderground v.1.15,2013-04-02 00:45:00,
2013-04-01 17:50:00,55.7,48.9,30.05,ESE,118,0.0,1.0,78,0.00,,,0.00,25,Wunderground v.1.15,2013-04-02 00:50:00,
2013-04-01 17:55:00,55.9,49.1,30.05,ESE,103,0.0,4.0,78,0.00,,,0.00,23,Wunderground v.1.15,2013-04-02 00:55:00,
2013-04-01 18:00:00,56.0,48.9,30.05,ESE,103,1.0,1.0,77,0.00,,,0.00,23,Wunderground v.1.15,2013-04-02 01:00:00,
2013-04-01 18:06:00,56.2,48.7,30.05,East,85,3.0,3.0,76,0.00,,,0.00,21,Wunderground v.1.15,2013-04-02 01:06:00,
2013-04-01 18:11:00,56.3,48.8,30.05,East,88,1.0,1.0,76,0.00,,,0.00,21,Wunderground v.1.15,2013-04-02 01:11:00,
2013-04-01 18:16:00,56.3,48.8,30.05,SE,140,0.0,4.0,76,0.00,,,0.00,19,Wunderground v.1.15,2013-04-02 01:16:00,
2013-04-01 18:21:00,56.3,48.5,30.05,NE,56,3.0,3.0,75,0.00,,,0.00,19,Wunderground v.1.15,2013-04-02 01:21:00,
2013-04-01 18:26:00,56.3,48.5,30.05,SSE,168,0.0,3.0,75,0.00,,,0.00,19,Wunderground v.1.15,2013-04-02 01:26:00,
2013-04-01 18:31:00,56.5,48.7,30.06,SSW,193,2.0,2.0,75,0.00,,,0.00,18,Wunderground v.1.15,2013-04-02 01:31:00,
2013-04-01 18:37:00,56.5,47.6,30.06,NNE,24,0.0,4.0,72,0.00,,,0.00,18,Wunderground v.1.15,2013-04-02 01:37:00,
2013-04-01 18:42:00,56.5,47.6,30.06,SSW,192,1.0,3.0,72,0.00,,,0.00,16,Wunderground v.1.15,2013-04-02 01:42:00,
2013-04-01 18:47:00,56.6,47.3,30.06,North,5,2.0,6.0,71,0.00,,,0.00,14,Wunderground v.1.15,2013-04-02 01:47:00,
2013-04-01 18:52:00,56.6,46.9,30.06,South,183,0.0,1.0,70,0.00,,,0.00,12,Wunderground v.1.15,2013-04-02 01:52:00,
2013-04-01 18:57:00,56.6,46.9,30.06,WNW,287,0.0,2.0,70,0.00,,,0.00,11,Wunderground v.1.15,2013-04-02 01:57:00,
2013-04-01 19:02:00,56.6,46.9,30.07,South,187,1.0,4.0,70,0.00,,,0.00,9,Wunderground v.1.15,2013-04-02 02:02:00,
2013-04-01 19:07:00,56.6,46.9,30.07,South,171,0.0,4.0,70,0.00,,,0.00,9,Wunderground v.1.15,2013-04-02 02:07:00,
2013-04-01 19:12:00,56.5,46.8,30.07,SSE,158,0.0,1.0,70,0.00,,,0.00,9,Wunderground v.1.15,2013-04-02 02:12:00,
2013-04-01 19:17:00,56.3,47.0,30.07,SE,144,0.0,2.0,71,0.00,,,0.00,7,Wunderground v.1.15,2013-04-02 02:17:00,
2013-04-01 19:22:00,56.2,46.9,30.07,NE,47,0.0,2.0,71,0.00,,,0.00,7,Wunderground v.1.15,2013-04-02 02:22:00,
2013-04-01 19:27:00,55.9,47.0,30.07,SSE,167,0.0,5.0,72,0.00,,,0.00,5,Wunderground v.1.15,2013-04-02 02:27:00,
2013-04-01 19:32:00,55.7,46.8,30.07,SSE,167,0.0,1.0,72,0.00,,,0.00,0,Wunderground v.1.15,2013-04-02 02:32:00,
2013-04-01 19:38:00,55.6,46.7,30.07,SSE,167,0.0,1.0,72,0.00,,,0.00,0,Wunderground v.1.15,2013-04-02 02:38:00,
2013-04-01 19:43:00,55.3,46.8,30.07,SSW,195,1.0,5.0,73,0.00,,,0.00,0,Wunderground v.1.15,2013-04-02 02:43:00,
2013-04-01 19:48:00,55.0,46.5,30.07,SSW,200,1.0,5.0,73,0.00,,,0.00,0,Wunderground v.1.15,2013-04-02 02:48:00,
2013-04-01 19:53:00,54.7,46.6,30.07,SSE,159,2.0,3.0,74,0.00,,,0.00,0,Wunderground v.1.15,2013-04-02 02:53:00,
2013-04-01 19:58:00,54.4,46.6,30.07,SSE,161,0.0,6.0,75,0.00,,,0.00,0,Wunderground v.1.15,2013-04-02 02:58:00,
2013-04-01 20:03:00,54.1,46.3,30.07,NE,36,0.0,4.0,75,0.00,,,0.00,0,Wunderground v.1.15,2013-04-02 03:03:00,
2013-04-01 20:08:00,53.9,46.5,30.07,SE,136,1.0,4.0,76,0.00,,,0.00,0,Wunderground v.1.15,2013-04-02 03:08:00,
2013-04-01 20:13:00,53.6,46.2,30.07,South,186,0.0,1.0,76,0.00,,,0.00,0,Wunderground v.1.15,2013-04-02 03:13:00,
2013-04-01 20:18:00,53.5,46.1,30.08,ENE,67,1.0,2.0,76,0.00,,,0.00,0,Wunderground v.1.15,2013-04-02 03:18:00,
2013-04-01 20:23:00,53.2,46.2,30.08,SE,139,1.0,5.0,77,0.00,,,0.00,0,Wunderground v.1.15,2013-04-02 03:23:00,
2013-04-01 20:28:00,52.9,46.2,30.08,SSE,165,1.0,7.0,78,0.00,,,0.00,0,Wunderground v.1.15,2013-04-02 03:28:00,
2013-04-01 20:33:00,52.8,46.1,30.08,SSW,202,0.0,1.0,78,0.00,,,0.00,0,Wunderground v.1.15,2013-04-02 03:33:00,
2013-04-01 20:38:00,52.5,45.8,30.08,SE,138,0.0,5.0,78,0.00,,,0.00,0,Wunderground v.1.15,2013-04-02 03:38:00,
2013-04-01 20:43:00,52.2,45.5,30.08,SSW,195,0.0,4.0,78,0.00,,,0.00,0,Wunderground v.1.15,2013-04-02 03:43:00,
2013-04-01 20:48:00,52.0,45.7,30.08,South,173,0.0,4.0,79,0.00,,,0.00,0,Wunderground v.1.15,2013-04-02 03:48:00,
2013-04-01 20:53:00,51.7,45.4,30.08,SE,142,1.0,2.0,79,0.00,,,0.00,0,Wunderground v.1.15,2013-04-02 03:53:00,
2013-04-01 20:58:00,51.6,45.3,30.08,SE,128,2.0,4.0,79,0.00,,,0.00,0,Wunderground v.1.15,2013-04-02 03:58:00,
2013-04-01 21:00:00,51.6,45.6,30.08,NE,51,1.0,4.0,80,0.00,,,0.00,0,Wunderground v.1.15,2013-04-02 04:00:00,
2013-04-01 21:05:00,51.3,45.3,30.10,ESE,122,0.0,1.0,80,0.00,,,0.00,0,Wunderground v.1.15,2013-04-02 04:05:00,
2013-04-01 21:10:00,51.1,45.1,30.10,SSW,192,2.0,2.0,80,0.00,,,0.00,0,Wunderground v.1.15,2013-04-02 04:10:00,
2013-04-01 21:15:00,50.8,45.2,30.10,ESE,110,0.0,2.0,81,0.00,,,0.00,0,Wunderground v.1.15,2013-04-02 04:15:00,
2013-04-01 21:20:00,50.7,45.1,30.10,ESE,110,0.0,0.0,81,0.00,,,0.00,0,Wunderground v.1.15,2013-04-02 04:20:00,
2013-04-01 21:25:00,50.5,44.9,30.10,SSW,200,0.0,2.0,81,0.00,,,0.00,0,Wunderground v.1.15,2013-04-02 04:25:00,
2013-04-01 21:30:00,50.4,44.8,30.10,SSW,194,0.0,0.0,81,0.00,,,0.00,0,Wunderground v.1.15,2013-04-02 04:30:00,
2013-04-01 21:35:00,50.2,44.9,30.10,SSW,194,0.0,0.0,82,0.00,,,0.00,0,Wunderground v.1.15,2013-04-02 04:35:00,
2013-04-01 21:40:00,50.1,44.8,30.10,SSW,194,0.0,1.0,82,0.00,,,0.00,0,Wunderground v.1.15,2013-04-02 04:40:00,
2013-04-01 21:45:00,49.9,44.6,30.11,East,94,0.0,3.0,82,0.00,,,0.00,0,Wunderground v.1.15,2013-04-02 04:45:00,
2013-04-01 21:50:00,49.8,44.8,30.11,East,94,1.0,1.0,83,0.00,,,0.00,0,Wunderground v.1.15,2013-04-02 04:50:00,
2013-04-01 21:55:00,49.6,44.6,30.11,East,94,0.0,2.0,83,0.00,,,0.00,0,Wunderground v.1.15,2013-04-02 04:55:00,
2013-04-01 22:00:00,49.5,44.9,30.11,East,94,0.0,0.0,84,0.00,,,0.00,0,Wunderground v.1.15,2013-04-02 05:00:00,
2013-04-01 22:05:00,49.4,44.8,30.11,East,94,0.0,2.0,84,0.00,,,0.00,0,Wunderground v.1.15,2013-04-02 05:05:00,
2013-04-01 22:10:00,49.2,44.6,30.11,East,94,0.0,0.0,84,0.00,,,0.00,0,Wunderground v.1.15,2013-04-02 05:10:00,
2013-04-01 22:15:00,49.1,44.5,30.11,East,94,0.0,1.0,84,0.00,,,0.00,0,Wunderground v.1.15,2013-04-02 05:15:00,
2013-04-01 22:20:00,48.9,44.3,30.11,East,94,0.0,0.0,84,0.00,,,0.00,0,Wunderground v.1.15,2013-04-02 05:20:00,
2013-04-01 22:25:00,48.8,44.2,30.11,East,94,0.0,1.0,84,0.00,,,0.00,0,Wunderground v.1.15,2013-04-02 05:25:00,
2013-04-01 22:30:00,48.6,44.3,30.12,East,94,0.0,0.0,85,0.00,,,0.00,0,Wunderground v.1.15,2013-04-02 05:30:00,
2013-04-01 22:35:00,48.3,44.0,30.12,East,94,0.0,1.0,85,0.00,,,0.00,0,Wunderground v.1.15,2013-04-02 05:35:00,
2013-04-01 22:40:00,48.2,43.9,30.12,East,94,1.0,1.0,85,0.00,,,0.00,0,Wunderground v.1.15,2013-04-02 05:40:00,
2013-04-01 22:45:00,48.0,44.0,30.12,East,94,0.0,2.0,86,0.00,,,0.00,0,Wunderground v.1.15,2013-04-02 05:45:00,
2013-04-01 22:50:00,47.9,43.9,30.12,East,94,0.0,0.0,86,0.00,,,0.00,0,Wunderground v.1.15,2013-04-02 05:50:00,
2013-04-01 22:55:00,47.7,44.0,30.12,East,94,0.0,1.0,87,0.00,,,0.00,0,Wunderground v.1.15,2013-04-02 05:55:00,
2013-04-01 23:00:00,47.6,43.9,30.12,East,94,0.0,0.0,87,0.00,,,0.00,0,Wunderground v.1.15,2013-04-02 06:00:00,
2013-04-01 23:05:00,47.4,43.7,30.12,East,94,0.0,1.0,87,0.00,,,0.00,0,Wunderground v.1.15,2013-04-02 06:05:00,
2013-04-01 23:10:00,47.3,43.6,30.12,East,94,0.0,0.0,87,0.00,,,0.00,0,Wunderground v.1.15,2013-04-02 06:10:00,
2013-04-01 23:15:00,47.3,43.6,30.13,East,94,0.0,1.0,87,0.00,,,0.00,0,Wunderground v.1.15,2013-04-02 06:15:00,
2013-04-01 23:20:00,47.1,43.7,30.13,East,94,0.0,0.0,88,0.00,,,0.00,0,Wunderground v.1.15,2013-04-02 06:20:00,
2013-04-01 23:25:00,47.0,43.6,30.13,East,94,0.0,1.0,88,0.00,,,0.00,0,Wunderground v.1.15,2013-04-02 06:25:00,
2013-04-01 23:30:00,47.0,43.6,30.13,East,94,0.0,0.0,88,0.00,,,0.00,0,Wunderground v.1.15,2013-04-02 06:30:00,
2013-04-01 23:35:00,47.0,43.9,30.13,East,94,0.0,1.0,89,0.00,,,0.00,0,Wunderground v.1.15,2013-04-02 06:35:00,
2013-04-01 23:40:00,47.0,43.9,30.13,East,94,0.0,1.0,89,0.00,,,0.00,0,Wunderground v.1.15,2013-04-02 06:40:00,
2013-04-01 23:45:00,47.0,44.2,30.13,SSE,155,1.0,5.0,90,0.00,,,0.00,0,Wunderground v.1.15,2013-04-02 06:45:00,
2013-04-01 23:50:00,47.1,44.3,30.13,SSE,163,1.0,1.0,90,0.00,,,0.00,0,Wunderground v.1.15,2013-04-02 06:50:00,
2013-04-01 23:55:00,47.3,44.8,30.13,SSE,164,0.0,4.0,91,0.00,,,0.00,0,Wunderground v.1.15,2013-04-02 06:55:00,